Location: Austin
(30.3000°N, 97.7500°W)
Time: 11:21:01
(UTC-05:00)

COSMOS 2428 - Pass Details

Date: 05 September 2024
Orbit: 842 x 857 km, 70.9° (Epoch: 10 September)

Event Time Altitude Azimuth Distance (km) Brightness Sun altitude
Rises 22:11:18 0° 217° (SW) 3,394 5.9 -30.1°
Reaches altitude 10° 22:13:53 10° 224° (SW) 2,465 5.3 -30.6°
Maximum altitude 22:19:11 41° 294° (WNW) 1,217 3.9 -31.6°
Drops below altitude 10° 22:24:33 10° 4° (N) 2,485 5.4 -32.6°
Sets 22:27:10 0° 11° (NNE) 3,426 6.1 -33.1°
